CCA917 ZSAM-VHHX

Flight info

Callsign CCA917
Flight time 0h 58m
Altitude 23600
Route NUSPA9Z NUSPA W597 IKATA A470 MAGOG
Aircraft A320/M-SDE3FGHIRWY/LB1

Departure

Time 2026-05-04 01:10
Airport Xiamen Gaoqi International Airport (ZSAM)

Arrival

Time 2026-05-04 02:08
Airport Hong Kong International Airport Kai Tak (VHHX)
Time Latitude Longitude Altitude Speed Heading
2026-05-04 00:32 24.53890 118.12734 45 ft 0 kts 142°
2026-05-04 01:00 24.53896 118.12729 45 ft 4 kts 142°
2026-05-04 01:01 24.53917 118.12711 45 ft 4 kts 142°
2026-05-04 01:01 24.53939 118.12694 42 ft 4 kts 143°
2026-05-04 01:01 24.53961 118.12676 43 ft 4 kts 143°
2026-05-04 01:01 24.53983 118.12658 45 ft 4 kts 143°
2026-05-04 01:02 24.54005 118.12641 45 ft 4 kts 143°
2026-05-04 01:02 24.54015 118.12633 44 ft 0 kts 143°
2026-05-04 01:04 24.54004 118.12641 45 ft 5 kts 143°
2026-05-04 01:04 24.53963 118.12666 40 ft 7 kts 173°
2026-05-04 01:05 24.53932 118.12639 44 ft 6 kts 233°
2026-05-04 01:05 24.53913 118.12586 45 ft 10 kts 278°
2026-05-04 01:05 24.53957 118.12539 45 ft 8 kts 324°
2026-05-04 01:05 24.53997 118.12491 45 ft 9 kts 279°
2026-05-04 01:06 24.53962 118.12426 47 ft 11 kts 231°
2026-05-04 01:06 24.53913 118.12356 42 ft 12 kts 232°
2026-05-04 01:06 24.53850 118.12268 45 ft 17 kts 231°
2026-05-04 01:06 24.53763 118.12148 44 ft 23 kts 232°
2026-05-04 01:07 24.53650 118.11990 44 ft 29 kts 232°
2026-05-04 01:07 24.53522 118.11810 45 ft 30 kts 232°
2026-05-04 01:07 24.53428 118.11679 43 ft 10 kts 232°
2026-05-04 01:07 24.53395 118.11617 45 ft 9 kts 256°
2026-05-04 01:08 24.53405 118.11557 46 ft 7 kts 286°
2026-05-04 01:08 24.53420 118.11507 45 ft 7 kts 292°
2026-05-04 01:08 24.53455 118.11474 45 ft 7 kts 338°
2026-05-04 01:08 24.53507 118.11493 45 ft 10 kts 49°
2026-05-04 01:09 24.53558 118.11568 45 ft 20 kts 52°
2026-05-04 01:09 24.53774 118.11866 43 ft 84 kts 52°
2026-05-04 01:09 24.54258 118.12543 45 ft 138 kts 52°
2026-05-04 01:09 24.54914 118.13468 402 ft 153 kts 52°
2026-05-04 01:10 24.55576 118.14392 1025 ft 155 kts 52°
2026-05-04 01:10 24.56242 118.15322 1757 ft 154 kts 52°
2026-05-04 01:10 24.56899 118.16242 2450 ft 152 kts 52°
2026-05-04 01:10 24.57551 118.17153 3161 ft 151 kts 51°
2026-05-04 01:11 24.58229 118.18101 3647 ft 168 kts 51°
2026-05-04 01:11 24.58998 118.19176 4037 ft 190 kts 51°
2026-05-04 01:11 24.59838 118.20353 4698 ft 201 kts 51°
2026-05-04 01:11 24.60725 118.21583 5406 ft 209 kts 50°
2026-05-04 01:12 24.61584 118.22891 6140 ft 219 kts 58°
2026-05-04 01:12 24.62008 118.23934 6645 ft 224 kts 73°
2026-05-04 01:12 24.62048 118.26230 7456 ft 235 kts 109°
2026-05-04 01:12 24.61234 118.27780 8097 ft 236 kts 139°
2026-05-04 01:13 24.59881 118.28756 8750 ft 233 kts 167°
2026-05-04 01:13 24.58313 118.28980 9421 ft 225 kts 194°
2026-05-04 01:13 24.56860 118.28476 10124 ft 216 kts 218°
2026-05-04 01:13 24.55722 118.27389 10548 ft 225 kts 236°
2026-05-04 01:14 24.55065 118.26467 10723 ft 240 kts 236°
2026-05-04 01:14 24.53983 118.24949 10984 ft 264 kts 235°
2026-05-04 01:14 24.52795 118.23295 11224 ft 287 kts 234°
2026-05-04 01:14 24.51502 118.21507 11414 ft 310 kts 234°
2026-05-04 01:15 24.50113 118.19579 11560 ft 333 kts 234°
2026-05-04 01:15 24.48643 118.17513 11692 ft 354 kts 234°
2026-05-04 01:15 24.47093 118.15325 11853 ft 371 kts 234°
2026-05-04 01:15 24.45495 118.13071 12302 ft 377 kts 234°
2026-05-04 01:16 24.43878 118.10794 12808 ft 379 kts 234°
2026-05-04 01:16 24.42271 118.08540 13763 ft 371 kts 234°
2026-05-04 01:16 24.40688 118.06318 14438 ft 370 kts 234°
2026-05-04 01:16 24.39104 118.04094 15026 ft 370 kts 235°
2026-05-04 01:17 24.37518 118.01865 15565 ft 371 kts 235°
2026-05-04 01:17 24.35923 117.99620 16047 ft 376 kts 234°
2026-05-04 01:17 24.34308 117.97346 16561 ft 380 kts 234°
2026-05-04 01:17 24.32699 117.95083 17072 ft 383 kts 234°
2026-05-04 01:18 24.31058 117.92775 17550 ft 385 kts 234°
2026-05-04 01:18 24.29400 117.90446 18049 ft 388 kts 234°
2026-05-04 01:18 24.27732 117.88105 18494 ft 391 kts 234°
2026-05-04 01:18 24.26053 117.85754 18898 ft 393 kts 234°
2026-05-04 01:19 24.24297 117.83449 19291 ft 397 kts 229°
2026-05-04 01:19 24.22320 117.81314 19676 ft 400 kts 227°
2026-05-04 01:19 24.20329 117.79178 20077 ft 402 kts 227°
2026-05-04 01:19 24.18327 117.77029 20473 ft 404 kts 227°
2026-05-04 01:20 24.16313 117.74870 20862 ft 406 kts 227°
2026-05-04 01:20 24.14289 117.72700 21199 ft 408 kts 227°
2026-05-04 01:20 24.12251 117.70518 21507 ft 412 kts 227°
2026-05-04 01:20 24.10195 117.68319 21855 ft 414 kts 227°
2026-05-04 01:21 24.08132 117.66112 22199 ft 416 kts 227°
2026-05-04 01:21 24.06058 117.63891 22543 ft 418 kts 227°
2026-05-04 01:21 24.03976 117.61661 22891 ft 420 kts 227°
2026-05-04 01:21 24.01914 117.59448 23229 ft 422 kts 227°
2026-05-04 01:22 23.99817 117.57196 23536 ft 424 kts 227°
2026-05-04 01:22 23.97713 117.54937 23673 ft 426 kts 227°
2026-05-04 01:22 23.95576 117.52643 23691 ft 433 kts 227°
2026-05-04 01:22 23.93410 117.50320 23690 ft 439 kts 227°
2026-05-04 01:23 23.91221 117.47982 23676 ft 441 kts 227°
2026-05-04 01:23 23.89023 117.45641 23691 ft 442 kts 227°
2026-05-04 01:23 23.86830 117.43276 23692 ft 442 kts 229°
2026-05-04 01:23 23.84934 117.40648 23690 ft 440 kts 238°
2026-05-04 01:24 23.83478 117.37722 23685 ft 438 kts 247°
2026-05-04 01:24 23.82472 117.34592 23685 ft 438 kts 253°
2026-05-04 01:24 23.81582 117.31414 23686 ft 438 kts 253°
2026-05-04 01:24 23.80680 117.28232 23686 ft 438 kts 252°
2026-05-04 01:25 23.79773 117.25062 23681 ft 438 kts 252°
2026-05-04 01:25 23.78862 117.21882 23678 ft 438 kts 252°
2026-05-04 01:25 23.77951 117.18707 23682 ft 438 kts 252°
2026-05-04 01:25 23.76902 117.15590 23690 ft 438 kts 245°
2026-05-04 01:26 23.75396 117.12705 23691 ft 439 kts 237°
2026-05-04 01:26 23.73479 117.10164 23688 ft 441 kts 229°
2026-05-04 01:26 23.71356 117.07748 23664 ft 441 kts 229°
2026-05-04 01:26 23.69235 117.05332 23662 ft 441 kts 229°
2026-05-04 01:27 23.67110 117.02912 23663 ft 442 kts 229°
2026-05-04 01:27 23.64984 117.00492 23658 ft 442 kts 229°
2026-05-04 01:27 23.62857 116.98075 23654 ft 442 kts 229°
2026-05-04 01:27 23.60729 116.95656 23653 ft 442 kts 229°
2026-05-04 01:28 23.58595 116.93230 23651 ft 442 kts 229°
2026-05-04 01:28 23.56464 116.90808 23653 ft 443 kts 229°
2026-05-04 01:28 23.54334 116.88391 23657 ft 443 kts 229°
2026-05-04 01:28 23.52199 116.85969 23660 ft 443 kts 229°
2026-05-04 01:29 23.50070 116.83551 23661 ft 443 kts 228°
2026-05-04 01:29 23.47940 116.81133 23663 ft 442 kts 228°
2026-05-04 01:29 23.45804 116.78713 23649 ft 443 kts 228°
2026-05-04 01:29 23.43631 116.76394 23649 ft 444 kts 223°
2026-05-04 01:30 23.41161 116.74284 23648 ft 446 kts 220°
2026-05-04 01:30 23.38697 116.72233 23650 ft 446 kts 220°
2026-05-04 01:30 23.36257 116.70210 23652 ft 446 kts 220°
2026-05-04 01:30 23.33790 116.68167 23653 ft 446 kts 220°
2026-05-04 01:31 23.31315 116.66117 23655 ft 446 kts 220°
2026-05-04 01:31 23.28838 116.64066 23656 ft 447 kts 220°
2026-05-04 01:31 23.26372 116.62019 23654 ft 447 kts 220°
2026-05-04 01:31 23.23900 116.59970 23653 ft 447 kts 220°
2026-05-04 01:32 23.21428 116.57922 23645 ft 447 kts 220°
2026-05-04 01:32 23.18957 116.55874 23655 ft 447 kts 220°
2026-05-04 01:32 23.16484 116.53819 23654 ft 448 kts 220°
2026-05-04 01:32 23.14010 116.51762 23664 ft 448 kts 220°
2026-05-04 01:33 23.11542 116.49713 23850 ft 447 kts 220°
2026-05-04 01:33 23.09066 116.47662 24007 ft 448 kts 220°
2026-05-04 01:33 23.06584 116.45611 24061 ft 449 kts 220°
2026-05-04 01:33 23.04099 116.43560 24067 ft 449 kts 220°
2026-05-04 01:34 23.01612 116.41506 24069 ft 449 kts 220°
2026-05-04 01:34 22.99131 116.39460 24068 ft 448 kts 220°
2026-05-04 01:34 22.96644 116.37412 24071 ft 449 kts 220°
2026-05-04 01:34 22.94153 116.35361 24068 ft 449 kts 220°
2026-05-04 01:35 22.91676 116.33310 24069 ft 448 kts 220°
2026-05-04 01:35 22.89199 116.31251 24069 ft 448 kts 220°
2026-05-04 01:35 22.86726 116.29193 24069 ft 448 kts 220°
2026-05-04 01:35 22.84254 116.27137 24072 ft 448 kts 220°
2026-05-04 01:36 22.81777 116.25080 24068 ft 448 kts 220°
2026-05-04 01:36 22.79308 116.23030 24065 ft 447 kts 220°
2026-05-04 01:36 22.76831 116.20976 24063 ft 447 kts 220°
2026-05-04 01:36 22.74394 116.18955 24058 ft 447 kts 220°
2026-05-04 01:37 22.71923 116.16908 24044 ft 447 kts 220°
2026-05-04 01:37 22.69448 116.14865 24042 ft 448 kts 220°
2026-05-04 01:37 22.66962 116.12830 24042 ft 448 kts 220°
2026-05-04 01:37 22.64470 116.10806 24046 ft 449 kts 220°
2026-05-04 01:38 22.61966 116.08778 24042 ft 449 kts 220°
2026-05-04 01:38 22.59459 116.06748 24047 ft 449 kts 220°
2026-05-04 01:38 22.56962 116.04723 24050 ft 449 kts 220°
2026-05-04 01:38 22.54459 116.02687 24047 ft 449 kts 220°
2026-05-04 01:39 22.51961 116.00649 24047 ft 450 kts 220°
2026-05-04 01:39 22.49461 115.98611 24054 ft 450 kts 220°
2026-05-04 01:39 22.46957 115.96574 24057 ft 450 kts 220°
2026-05-04 01:39 22.44456 115.94542 24058 ft 450 kts 220°
2026-05-04 01:40 22.41951 115.92508 24061 ft 450 kts 220°
2026-05-04 01:40 22.39444 115.90474 24059 ft 450 kts 220°
2026-05-04 01:40 22.36938 115.88441 24058 ft 450 kts 220°
2026-05-04 01:40 22.34526 115.86370 24056 ft 447 kts 226°
2026-05-04 01:41 22.32459 115.83877 24055 ft 444 kts 236°
2026-05-04 01:41 22.30883 115.81023 24055 ft 442 kts 246°
2026-05-04 01:41 22.29833 115.77912 24058 ft 441 kts 255°
2026-05-04 01:41 22.29332 115.74652 24054 ft 442 kts 265°
2026-05-04 01:42 22.29195 115.71333 24053 ft 442 kts 266°
2026-05-04 01:42 22.29072 115.68020 24057 ft 442 kts 266°
2026-05-04 01:42 22.28953 115.64704 24055 ft 442 kts 266°
2026-05-04 01:42 22.28831 115.61381 24062 ft 443 kts 266°
2026-05-04 01:43 22.28707 115.58060 24064 ft 443 kts 266°
2026-05-04 01:43 22.28584 115.54736 24057 ft 443 kts 266°
2026-05-04 01:43 22.28458 115.51407 24060 ft 444 kts 266°
2026-05-04 01:43 22.28330 115.48079 24057 ft 444 kts 266°
2026-05-04 01:44 22.28203 115.44747 24067 ft 444 kts 266°
2026-05-04 01:44 22.28075 115.41425 24064 ft 444 kts 266°
2026-05-04 01:44 22.27947 115.38142 24056 ft 444 kts 266°
2026-05-04 01:44 22.27816 115.34816 24045 ft 444 kts 266°
2026-05-04 01:45 22.27686 115.31483 23987 ft 445 kts 266°
2026-05-04 01:45 22.27554 115.28137 23769 ft 446 kts 266°
2026-05-04 01:45 22.27286 115.21450 23272 ft 445 kts 266°
2026-05-04 01:46 22.27153 115.18121 23010 ft 443 kts 266°
2026-05-04 01:46 22.26991 115.14810 22750 ft 441 kts 263°
2026-05-04 01:46 22.26514 115.11544 22499 ft 439 kts 258°
2026-05-04 01:46 22.25932 115.08317 22238 ft 437 kts 258°
2026-05-04 01:47 22.25353 115.05113 21319 ft 434 kts 258°
2026-05-04 01:47 22.24778 115.01927 20413 ft 431 kts 258°
2026-05-04 01:47 22.24206 114.98760 19559 ft 428 kts 258°
2026-05-04 01:47 22.23643 114.95636 18811 ft 423 kts 258°
2026-05-04 01:48 22.23194 114.92509 18124 ft 418 kts 264°
2026-05-04 01:48 22.23117 114.89381 17337 ft 414 kts 268°
2026-05-04 01:48 22.23085 114.86295 16583 ft 410 kts 268°
2026-05-04 01:48 22.23053 114.83239 15850 ft 406 kts 268°
2026-05-04 01:49 22.23023 114.80245 15606 ft 390 kts 268°
2026-05-04 01:49 22.22995 114.77382 15484 ft 372 kts 268°
2026-05-04 01:49 22.22967 114.74655 15365 ft 356 kts 267°
2026-05-04 01:49 22.22937 114.72038 15247 ft 342 kts 267°
2026-05-04 01:50 22.22905 114.69526 15127 ft 328 kts 267°
2026-05-04 01:50 22.22873 114.67105 15010 ft 316 kts 267°
2026-05-04 01:50 22.22843 114.64778 14881 ft 301 kts 267°
2026-05-04 01:50 22.22816 114.62600 14472 ft 290 kts 267°
2026-05-04 01:51 22.22786 114.60417 14104 ft 284 kts 267°
2026-05-04 01:51 22.22758 114.58290 13877 ft 282 kts 267°
2026-05-04 01:51 22.22730 114.56173 13626 ft 281 kts 267°
2026-05-04 01:51 22.22702 114.54101 13372 ft 280 kts 267°
2026-05-04 01:52 22.22675 114.52004 13124 ft 279 kts 267°
2026-05-04 01:52 22.22647 114.49914 12874 ft 278 kts 267°
2026-05-04 01:52 22.22620 114.47831 12617 ft 277 kts 268°
2026-05-04 01:52 22.22593 114.45754 12378 ft 276 kts 268°
2026-05-04 01:53 22.22564 114.43678 12133 ft 276 kts 268°
2026-05-04 01:53 22.22534 114.41624 11891 ft 275 kts 268°
2026-05-04 01:53 22.22506 114.39567 11648 ft 274 kts 268°
2026-05-04 01:53 22.22478 114.37508 11414 ft 273 kts 268°
2026-05-04 01:54 22.22449 114.35461 11176 ft 272 kts 268°
2026-05-04 01:54 22.22420 114.33421 10942 ft 271 kts 268°
2026-05-04 01:54 22.22391 114.31387 10705 ft 271 kts 268°
2026-05-04 01:54 22.22363 114.29362 10473 ft 270 kts 269°
2026-05-04 01:55 22.22333 114.27339 10246 ft 269 kts 269°
2026-05-04 01:55 22.22302 114.25322 10018 ft 268 kts 269°
2026-05-04 01:55 22.22271 114.23315 9896 ft 268 kts 269°
2026-05-04 01:55 22.22240 114.21295 9751 ft 269 kts 269°
2026-05-04 01:56 22.22210 114.19277 9503 ft 269 kts 269°
2026-05-04 01:56 22.22181 114.17267 9252 ft 268 kts 269°
2026-05-04 01:56 22.22152 114.15285 9005 ft 267 kts 269°
2026-05-04 01:56 22.22123 114.13285 8758 ft 266 kts 269°
2026-05-04 01:57 22.22094 114.11292 8511 ft 266 kts 269°
2026-05-04 01:57 22.22062 114.09292 8267 ft 266 kts 269°
2026-05-04 01:57 22.22028 114.07303 8067 ft 265 kts 269°
2026-05-04 01:57 22.21995 114.05306 7999 ft 265 kts 269°
2026-05-04 01:58 22.21961 114.03310 7977 ft 267 kts 269°
2026-05-04 01:58 22.21938 114.01313 7694 ft 266 kts 269°
2026-05-04 01:58 22.21927 113.99318 7408 ft 265 kts 270°
2026-05-04 01:58 22.21913 113.97338 7125 ft 262 kts 269°
2026-05-04 01:59 22.21902 113.95391 6844 ft 257 kts 269°
2026-05-04 01:59 22.21890 113.93483 6566 ft 252 kts 269°
2026-05-04 01:59 22.21879 113.91610 6274 ft 248 kts 269°
2026-05-04 01:59 22.21900 113.89766 5974 ft 244 kts 277°
2026-05-04 02:00 22.22423 113.88231 5711 ft 242 kts 304°
2026-05-04 02:00 22.23703 113.87083 5412 ft 243 kts 335°
2026-05-04 02:00 22.25364 113.86818 5121 ft 246 kts
2026-05-04 02:00 22.26939 113.87518 4835 ft 248 kts 35°
2026-05-04 02:01 22.28249 113.88715 4572 ft 245 kts 43°
2026-05-04 02:01 22.29446 113.89970 4504 ft 234 kts 44°
2026-05-04 02:01 22.30444 113.91262 4501 ft 222 kts 61°
2026-05-04 02:01 22.30908 113.92805 4508 ft 213 kts 84°
2026-05-04 02:02 22.31040 113.94338 4515 ft 205 kts 85°
2026-05-04 02:02 22.31171 113.95869 4300 ft 204 kts 84°
2026-05-04 02:02 22.31308 113.97380 4049 ft 200 kts 84°
2026-05-04 02:02 22.31441 113.98837 3801 ft 197 kts 84°
2026-05-04 02:03 22.31570 114.00249 3552 ft 194 kts 83°
2026-05-04 02:03 22.31702 114.01689 3305 ft 192 kts 83°
2026-05-04 02:03 22.31832 114.03111 3041 ft 190 kts 83°
2026-05-04 02:03 22.31962 114.04527 2781 ft 188 kts 82°
2026-05-04 02:04 22.32089 114.05915 2532 ft 183 kts 82°
2026-05-04 02:04 22.32211 114.07262 2286 ft 176 kts 83°
2026-05-04 02:04 22.32327 114.08534 2067 ft 164 kts 82°
2026-05-04 02:04 22.32434 114.09714 1846 ft 152 kts 82°
2026-05-04 02:05 22.32533 114.10804 1643 ft 144 kts 81°
2026-05-04 02:05 22.32629 114.11856 1463 ft 137 kts 81°
2026-05-04 02:05 22.32689 114.12510 1339 ft 136 kts 82°
2026-05-04 02:05 22.32814 114.13876 1088 ft 136 kts 81°
2026-05-04 02:06 22.32870 114.14502 991 ft 134 kts 81°
2026-05-04 02:06 22.32964 114.15500 767 ft 135 kts 81°
2026-05-04 02:06 22.33068 114.16502 662 ft 135 kts 80°
2026-05-04 02:06 22.33190 114.17504 451 ft 134 kts 80°
2026-05-04 02:07 22.33118 114.18505 331 ft 137 kts 109°
2026-05-04 02:07 22.32485 114.19297 124 ft 140 kts 128°
2026-05-04 02:07 22.31822 114.20034 45 ft 128 kts 128°
2026-05-04 02:07 22.31307 114.20626 39 ft 84 kts 134°
2026-05-04 02:08 22.31020 114.20950 38 ft 35 kts 134°
2026-05-04 02:08 22.30949 114.21035 38 ft 8 kts 104°
2026-05-04 02:08 22.30974 114.21078 39 ft 7 kts 43°
2026-05-04 02:08 22.31016 114.21095 39 ft 7 kts 341°
2026-05-04 02:09 22.31058 114.21055 39 ft 12 kts 315°
2026-05-04 02:09 22.31135 114.20967 39 ft 20 kts 315°
2026-05-04 02:09 22.31252 114.20837 40 ft 28 kts 314°
2026-05-04 02:09 22.31389 114.20685 38 ft 29 kts 314°
2026-05-04 02:10 22.31533 114.20524 40 ft 30 kts 314°
2026-05-04 02:10 22.31681 114.20356 40 ft 31 kts 314°
2026-05-04 02:10 22.31837 114.20187 40 ft 32 kts 315°
2026-05-04 02:10 22.31993 114.20010 40 ft 33 kts 314°
2026-05-04 02:11 22.32154 114.19830 40 ft 34 kts 314°
2026-05-04 02:11 22.32318 114.19648 39 ft 34 kts 316°
2026-05-04 02:11 22.32478 114.19490 40 ft 20 kts 317°
2026-05-04 02:11 22.32558 114.19412 40 ft 11 kts 328°
2026-05-04 02:12 22.32623 114.19432 40 ft 11 kts 47°
2026-05-04 02:12 22.32684 114.19497 40 ft 13 kts 43°
2026-05-04 02:12 22.32736 114.19546 40 ft 7 kts 26°
2026-05-04 02:12 22.32773 114.19520 40 ft 5 kts 312°
2026-05-04 02:13 22.32790 114.19501 40 ft 2 kts 315°
2026-05-04 02:13 22.32799 114.19491 40 ft 2 kts 314°
2026-05-04 02:13 22.32801 114.19489 40 ft 0 kts 314°